{"data":{"norad_id":61705,"intl_designator":"2024-195U","name":"STARLINK-32515","alt_names":[],"object_type":"PAYLOAD","status":"ACTIVE","operator":null,"country":"US","launch_date":"2024-10-30","launch_site_code":"AFWTR","launch_vehicle":null,"mission":null,"orbit_class":"UNKNOWN","rcs_meters":null,"size_class":null,"mass_kg":null,"dimensions":null,"purposes":["comms"],"wikipedia_slug":null,"has_3d_model":false,"image_url":null,"decayed_at":null,"tle_current":{"epoch":"2026-09-21T11:29:21.071040Z","epoch_age_seconds":104298,"freshness":"FRESH","line1":"1 61705U 24195U   26264.47871610 -.00000349  00000+0  80255-6 0  9996","line2":"2 61705  53.1611 324.8084 0001227  85.8482 274.2661 15.34386958107170","mean_motion":15.34386958,"eccentricity":0.0001227,"inclination_deg":53.1611,"raan_deg":324.8084,"arg_perigee_deg":85.8482,"mean_anomaly_deg":274.2661,"bstar":8.0255e-7,"rev_number":10717,"period_min":93.848555769594,"perigee_km":461.90262820035,"apogee_km":463.58137990795,"semimajor_km":6840.8790040541,"source":"CELESTRAK","updated_at":"2026-09-22T09:00:49.409293Z"}}}